• In Portugal
  • List of Countries
  • For 7 days
  • Water Temperature
  • Satellite Maps
  • Weather Map
  • Weather Widgets
  • user-avatar
    Login

    Hourly Weather Dalandzadgad

    Today, 23 October, Monday

    Time Temperature Precipitation Wind Pressure Humidity
    00:00 +5°C° 0 mm 4 mps 638 mmHg 33%
    01:00 +4°C° 0 mm 4 mps 638 mmHg 34%
    02:00 +4°C° 0 mm 4 mps 638 mmHg 34%
    03:00 +4°C° 0 mm 4 mps 638 mmHg 34%
    04:00 +4°C° 0 mm 4 mps 638 mmHg 34%
    05:00 +4°C° 0 mm 4 mps 638 mmHg 34%
    06:00 +3°C° 0 mm 3 mps 638 mmHg 33%
    07:00 +4°C° 0 mm 3 mps 638 mmHg 30%
    08:00 +5°C° 0 mm 3 mps 638 mmHg 27%
    09:00 +8°C° 0 mm 3 mps 639 mmHg 24%
    10:00 +10°C° 0 mm 3 mps 639 mmHg 21%
    11:00 +10°C° 0 mm 3 mps 639 mmHg 19%
    12:00 +11°C° 0 mm 3 mps 639 mmHg 18%
    13:00 +13°C° 0 mm 2 mps 638 mmHg 17%
    14:00 +13°C° 0 mm 2 mps 638 mmHg 17%
    15:00 +13°C° 0 mm 2 mps 638 mmHg 17%
    16:00 +13°C° 0 mm 2 mps 638 mmHg 17%
    17:00 +12°C° 0 mm 2 mps 638 mmHg 19%
    18:00 +10°C° 0 mm 2 mps 637 mmHg 21%
    19:00 +10°C° 0 mm 1 mps 637 mmHg 24%
    20:00 +9°C° 0 mm 1 mps 637 mmHg 25%
    21:00 +9°C° 0 mm 1 mps 637 mmHg 26%
    22:00 +8°C° 0 mm 1 mps 637 mmHg 27%
    23:00 +7°C° 0 mm 1 mps 637 mmHg 28%

    Tomorrow, 24 October, Tuesday

    Time Temperature Precipitation Wind Pressure Humidity
    00:00 +7°C° 0 mm 1 mps 637 mmHg 29%
    01:00 +6°C° 0 mm 1 mps 636 mmHg 30%
    02:00 +6°C° 0 mm 1 mps 636 mmHg 30%
    03:00 +6°C° 0 mm 1 mps 636 mmHg 31%
    04:00 +5°C° 0 mm 1 mps 636 mmHg 32%
    05:00 +5°C° 0 mm 1 mps 636 mmHg 32%
    06:00 +5°C° 0 mm 1 mps 636 mmHg 32%
    07:00 +5°C° 0 mm 1 mps 636 mmHg 32%
    08:00 +7°C° 0 mm 1 mps 637 mmHg 29%
    09:00 +8°C° 0 mm 2 mps 638 mmHg 26%
    10:00 +10°C° 0 mm 2 mps 639 mmHg 22%
    11:00 +10°C° 0 mm 2 mps 639 mmHg 21%
    12:00 +12°C° 0 mm 2 mps 639 mmHg 20%
    13:00 +13°C° 0 mm 2 mps 639 mmHg 19%
    14:00 +13°C° 0 mm 2 mps 638 mmHg 19%
    15:00 +13°C° 0 mm 2 mps 638 mmHg 19%
    16:00 +13°C° 0 mm 2 mps 638 mmHg 19%
    17:00 +12°C° 0 mm 2 mps 638 mmHg 21%
    18:00 +11°C° 0 mm 1 mps 638 mmHg 23%
    19:00 +10°C° 0 mm 1 mps 639 mmHg 24%
    20:00 +10°C° 0 mm 1 mps 639 mmHg 25%
    21:00 +10°C° 0 mm 1 mps 639 mmHg 26%
    22:00 +9°C° 0 mm 1 mps 639 mmHg 27%
    23:00 +9°C° 0 mm 1 mps 639 mmHg 27%

    Day after tomorrow, 25 October, Wednesday

    Time Temperature Precipitation Wind Pressure Humidity
    00:00 +9°C° 0 mm 1 mps 638 mmHg 27%
    01:00 +8°C° 0 mm 1 mps 638 mmHg 26%
    02:00 +8°C° 0 mm 1 mps 638 mmHg 27%
    03:00 +8°C° 0 mm 1 mps 638 mmHg 27%
    04:00 +8°C° 0 mm 1 mps 637 mmHg 27%
    05:00 +7°C° 0 mm 2 mps 638 mmHg 27%
    06:00 +7°C° 0 mm 2 mps 638 mmHg 28%
    07:00 +6°C° 0 mm 2 mps 638 mmHg 28%
    08:00 +8°C° 0 mm 3 mps 639 mmHg 25%
    09:00 +8°C° 0 mm 4 mps 639 mmHg 23%
    10:00 +11°C° 0 mm 4 mps 640 mmHg 20%
    11:00 +12°C° 0 mm 5 mps 640 mmHg 20%
    12:00 +12°C° 0 mm 5 mps 639 mmHg 20%
    13:00 +13°C° 0 mm 6 mps 639 mmHg 19%
    14:00 +13°C° 0 mm 6 mps 638 mmHg 20%
    15:00 +13°C° 0 mm 6 mps 638 mmHg 20%
    16:00 +13°C° 0 mm 6 mps 638 mmHg 20%
    17:00 +12°C° 0 mm 5 mps 638 mmHg 23%
    18:00 +11°C° 0 mm 4 mps 638 mmHg 25%
    19:00 +10°C° 0 mm 4 mps 637 mmHg 27%
    20:00 +8°C° 0 mm 4 mps 637 mmHg 28%
    21:00 +8°C° 0 mm 4 mps 637 mmHg 30%
    22:00 +7°C° 0 mm 4 mps 637 mmHg 31%
    23:00 +7°C° 0 mm 4 mps 637 mmHg 33%

    26 October, Thursday

    Time Temperature Precipitation Wind Pressure Humidity
    00:00 +6°C° 0 mm 4 mps 636 mmHg 34%
    01:00 +6°C° 0 mm 4 mps 636 mmHg 35%
    02:00 +5°C° 0 mm 4 mps 636 mmHg 36%
    03:00 +5°C° 0 mm 4 mps 635 mmHg 37%
    04:00 +5°C° 0 mm 4 mps 635 mmHg 38%
    05:00 +4°C° 0 mm 4 mps 635 mmHg 39%
    06:00 +4°C° 0 mm 4 mps 635 mmHg 40%
    07:00 +4°C° 0 mm 4 mps 635 mmHg 40%
    08:00 +6°C° 0 mm 5 mps 635 mmHg 36%
    09:00 +7°C° 0 mm 6 mps 636 mmHg 31%
    10:00 +9°C° 0 mm 8 mps 636 mmHg 27%
    11:00 +10°C° 0 mm 8 mps 636 mmHg 24%
    12:00 +11°C° 0 mm 8 mps 635 mmHg 22%
    13:00 +12°C° 0 mm 9 mps 635 mmHg 19%
    14:00 +12°C° 0 mm 9 mps 635 mmHg 19%
    15:00 +12°C° 0 mm 8 mps 635 mmHg 18%
    16:00 +12°C° 0 mm 8 mps 635 mmHg 18%
    17:00 +11°C° 0 mm 7 mps 635 mmHg 20%
    18:00 +10°C° 0 mm 6 mps 634 mmHg 22%
    19:00 +8°C° 0 mm 5 mps 634 mmHg 24%
    20:00 +8°C° 0 mm 5 mps 634 mmHg 25%
    21:00 +8°C° 0 mm 5 mps 634 mmHg 27%
    22:00 +7°C° 0 mm 6 mps 634 mmHg 28%
    23:00 +7°C° 0 mm 6 mps 634 mmHg 30%

    27 October, Friday

    Time Temperature Precipitation Wind Pressure Humidity
    00:00 +5°C° 0 mm 6 mps 634 mmHg 31%
    01:00 +5°C° 0 mm 7 mps 634 mmHg 33%
    02:00 +4°C° 0 mm 7 mps 635 mmHg 36%
    03:00 +2°C° 0 mm 8 mps 635 mmHg 40%
    04:00 +1°C° 0 mm 8 mps 636 mmHg 44%
    05:00 -1°C° 0 mm 8 mps 637 mmHg 41%
    06:00 -2°C° 0 mm 8 mps 637 mmHg 38%
    07:00 -3°C° 0 mm 7 mps 638 mmHg 35%
    08:00 -3°C° 0 mm 7 mps 638 mmHg 31%
    09:00 -3°C° 0 mm 7 mps 639 mmHg 27%
    10:00 -3°C° 0 mm 7 mps 640 mmHg 23%
    11:00 -2°C° 0 mm 6 mps 640 mmHg 22%
    12:00 -2°C° 0 mm 6 mps 640 mmHg 21%
    13:00 -1°C° 0 mm 5 mps 640 mmHg 19%
    14:00 -1°C° 0 mm 5 mps 640 mmHg 20%
    15:00 -1°C° 0 mm 5 mps 640 mmHg 20%
    16:00 -1°C° 0 mm 5 mps 640 mmHg 20%
    17:00 -2°C° 0 mm 5 mps 641 mmHg 21%
    18:00 -2°C° 0 mm 4 mps 642 mmHg 22%
    19:00 -3°C° 0 mm 4 mps 642 mmHg 23%
    20:00 -3°C° 0 mm 4 mps 643 mmHg 23%
    21:00 -2°C° 0 mm 3 mps 643 mmHg 23%
    22:00 -4°C° 0 mm 3 mps 643 mmHg 24%
    23:00 -3°C° 0 mm 2 mps 643 mmHg 24%

    28 October, Saturday

    Time Temperature Precipitation Wind Pressure Humidity
    00:00 -3°C° 0 mm 2 mps 644 mmHg 25%
    01:00 -2°C° 0 mm 1 mps 644 mmHg 25%
    02:00 -2°C° 0 mm 1 mps 644 mmHg 26%
    03:00 -2°C° 0 mm 1 mps 644 mmHg 26%
    04:00 -3°C° 0 mm 1 mps 644 mmHg 27%
    05:00 -3°C° 0 mm 1 mps 644 mmHg 27%
    06:00 -5°C° 0 mm 2 mps 644 mmHg 27%
    07:00 -5°C° 0 mm 2 mps 645 mmHg 27%
    08:00 -4°C° 0 mm 2 mps 645 mmHg 25%
    09:00 -3°C° 0 mm 2 mps 645 mmHg 22%
    10:00 -1°C° 0 mm 2 mps 646 mmHg 20%
    11:00 -1°C° 0 mm 2 mps 646 mmHg 19%
    12:00 +1°C° 0 mm 2 mps 645 mmHg 18%
    13:00 +2°C° 0 mm 2 mps 645 mmHg 16%
    14:00 +2°C° 0 mm 2 mps 645 mmHg 16%
    15:00 +2°C° 0 mm 2 mps 645 mmHg 16%
    16:00 +4°C° 0 mm 1 mps 644 mmHg 15%
    17:00 +3°C° 0 mm 1 mps 644 mmHg 16%
    18:00 +2°C° 0 mm 1 mps 644 mmHg 17%
    19:00 +2°C° 0 mm 1 mps 645 mmHg 18%
    20:00 +1°C° 0 mm 1 mps 644 mmHg 19%
    21:00 -1°C° 0 mm 2 mps 644 mmHg 19%
    22:00 -1°C° 0 mm 2 mps 644 mmHg 19%
    23:00 -2°C° 0 mm 2 mps 644 mmHg 20%

    29 October, Sunday

    Time Temperature Precipitation Wind Pressure Humidity
    00:00 -2°C° 0 mm 3 mps 644 mmHg 20%
    01:00 -2°C° 0 mm 3 mps 644 mmHg 21%
    02:00 -2°C° 0 mm 3 mps 643 mmHg 21%
    03:00 -4°C° 0 mm 3 mps 643 mmHg 21%
    04:00 -4°C° 0 mm 3 mps 643 mmHg 21%
    05:00 -4°C° 0 mm 3 mps 643 mmHg 21%
    06:00 -4°C° 0 mm 3 mps 643 mmHg 21%
    07:00 -4°C° 0 mm 3 mps 643 mmHg 21%
    08:00 -2°C° 0 mm 4 mps 643 mmHg 21%
    09:00 0°C° 0 mm 5 mps 643 mmHg 20%
    10:00 +2°C° 0 mm 5 mps 644 mmHg 20%
    11:00 +3°C° 0 mm 6 mps 643 mmHg 20%
    12:00 +4°C° 0 mm 7 mps 642 mmHg 20%
    13:00 +5°C° 0 mm 7 mps 642 mmHg 20%
    14:00 +5°C° 0 mm 7 mps 641 mmHg 20%
    15:00 +5°C° 0 mm 7 mps 641 mmHg 21%
    16:00 +5°C° 0 mm 7 mps 640 mmHg 21%
    17:00 +4°C° 0 mm 6 mps 640 mmHg 23%
    18:00 +3°C° 0 mm 6 mps 640 mmHg 26%
    19:00 +2°C° 0 mm 5 mps 640 mmHg 28%
    20:00 +2°C° 0 mm 6 mps 639 mmHg 30%
    21:00 +2°C° 0 mm 6 mps 639 mmHg 32%
    22:00 +2°C° 0 mm 6 mps 639 mmHg 34%
    23:00 +1°C° 0 mm 6 mps 639 mmHg 34%
    Show more